Regional Weather Roundup
Issued by NWS

Home | Current Version | Previous Version | Graphics & Text | Print | Product List | Glossary On
Versions: 1 2 3 4 5 6 7 8 9 10 11 12 13 14 15 16 17 18 19 20 21 22 23 24 25 26 27 28 29 30 31 32 33 34 35 36 37 38 39 40 41 42 43 44 45 46 47 48 49 50
384
ASUS45 KABQ 221401
RWRNM
NEW MEXICO REGIONAL WEATHER ROUNDUP
NATIONAL WEATHER SERVICE ALBUQUERQUE NM
800 AM MDT TUE AUG 22 2017

NOTE: "FAIR" MEANS FEW OR NO CLOUDS BELOW 12,000 FEET AGL WITH NO
       SIGNIFICANT WEATHER OR OBSTRUCTIONS TO VISION.

      THIS PRODUCT IS RELEASED AS TWO VERSIONS.  ONE VERSION NEAR
      THE TOP OF THE HOUR CONTAINING PRELIMINARY DATA FROM ALBUQUERQUE
      AND OTHER STATIONS.  A FINAL VERSION WITH ADDITIONAL DATA IS
      ISSUED ABOUT 10 MINUTES AFTER THE HOUR.

NMZ501-503-504-510>518-221500-
NORTHWEST PLATEAU/NORTHCENTRAL MOUNTAINS

CITY           SKY/WX    TMP DP  RH WIND       PRES   REMARKS
FARMINGTON     FAIR      64  52  64 E5        30.32R
LOS ALAMOS     CLOUDY    60  47  60 N8        30.44R
SANTA FE       PTSUNNY   61  56  83 N10       30.38R
TAOS           CLOUDY    56  53  90 CALM      30.46R
ANGEL FIRE     PTSUNNY   49  48  95 CALM      30.53R

$$
NMZ402-403-502-505>509-221500-
WESTCENTRAL MOUNTAINS/SOUTHWEST MOUNTAINS

CITY           SKY/WX    TMP DP  RH WIND       PRES   REMARKS
GALLUP         FAIR      58  49  72 E3        30.37R
GRANTS         FAIR      59  48  67 N3        30.40R
SILVER CITY    FAIR      65  55  69 N6        30.28R

$$
NMZ407-409-411-412-221500-
SOUTHERN DESERTS

CITY           SKY/WX    TMP DP  RH WIND       PRES   REMARKS
DEMING         FAIR      69  62  78 CALM      30.20R
LAS CRUCES     FAIR      72  65  80 CALM      30.22R
ALAMOGORDO     FAIR      70  63  78 S5        30.21R
T OR C         FAIR      71  58  63 N10       30.24R

$$
NMZ519>523-221500-
CENTRAL VALLEYS/CENTRAL HIGHLANDS

CITY           SKY/WX    TMP DP  RH WIND       PRES   REMARKS
ALBUQUERQUE    FAIR      66  54  65 N10       30.31R
DOUBLE EAGLE   MOSUNNY   64  54  68 N10       30.34R
CLINES CORNERS FAIR      63  48  58 NE10      30.41R
BELEN          NOT AVBL
SOCORRO        NOT AVBL

$$
NMZ524>526-539-540-221500-
SOUTHCENTRAL MOUNTAINS

CITY           SKY/WX    TMP DP  RH WIND       PRES   REMARKS
RUIDOSO        FAIR      64  54  68 W6        30.40R

$$
NMZ527>531-221500-
NORTHEAST HIGHLANDS/NORTHEAST PLAINS

CITY           SKY/WX    TMP DP  RH WIND       PRES   REMARKS
LAS VEGAS      FAIR      59  51  75 N7        30.41R
RATON          PTSUNNY   64  53  67 N7        30.38R
CLAYTON        CLOUDY    66  64  93 N21       30.29R

$$
NMZ532>537-221500-
EASTCENTRAL PLAINS

CITY           SKY/WX    TMP DP  RH WIND       PRES   REMARKS
SANTA ROSA     FAIR      66  60  79 NW7       30.26R
TUCUMCARI      FAIR      69  62  78 W5        30.20R
CANNON AFB     NOT AVBL
CLOVIS AIRPORT FAIR      69  65  86 NE7       30.23R

$$
NMZ028-029-538-221500-
SOUTHEAST PLAINS

CITY           SKY/WX    TMP DP  RH WIND       PRES   REMARKS
ROSWELL        FAIR      71  66  84 N6        30.17R
ARTESIA        FAIR      72  68  88 NW8       30.18R
CARLSBAD       FAIR      71  70  96 NW3       30.14R
HOBBS          SUNNY     72  64  78 S9        30.17S


$$




USA.gov is the U.S. government's official web portal to all federal, state and local government web resources and services.